TimeCDT,TemperatureF,Dew PointF,Humidity,Sea Level PressureIn,VisibilityMPH,Wind Direction,Wind SpeedMPH,Gust SpeedMPH,PrecipitationIn,Events,Conditions,WindDirDegrees,DateUTC
12:56 AM,37.9,25.0,60,30.34,10.0,North,6.9,-,N/A,,Clear,10,2013-03-27 05:56:00
1:56 AM,37.0,25.0,62,30.33,10.0,North,5.8,-,N/A,,Clear,10,2013-03-27 06:56:00
2:56 AM,33.1,25.0,72,30.32,10.0,North,3.5,-,N/A,,Clear,10,2013-03-27 07:56:00
3:56 AM,30.0,25.0,82,30.32,10.0,NNW,3.5,-,N/A,,Clear,340,2013-03-27 08:56:00
4:56 AM,30.0,25.0,82,30.32,10.0,NNW,5.8,-,N/A,,Clear,340,2013-03-27 09:56:00
5:56 AM,32.0,24.1,73,30.34,10.0,North,5.8,-,N/A,,Clear,360,2013-03-27 10:56:00
6:56 AM,28.0,23.0,81,30.38,10.0,NW,3.5,-,N/A,,Clear,320,2013-03-27 11:56:00
7:56 AM,37.9,26.1,62,30.38,10.0,NNE,6.9,-,N/A,,Clear,20,2013-03-27 12:56:00
8:56 AM,44.1,24.1,45,30.40,10.0,NE,10.4,-,N/A,,Clear,50,2013-03-27 13:56:00
9:56 AM,46.9,23.0,39,30.40,10.0,NE,8.1,-,N/A,,Clear,40,2013-03-27 14:56:00
10:56 AM,50.0,23.0,35,30.40,10.0,NNW,8.1,-,N/A,,Clear,340,2013-03-27 15:56:00
11:56 AM,52.0,23.0,32,30.38,10.0,North,6.9,-,N/A,,Clear,360,2013-03-27 16:56:00
12:56 PM,55.0,23.0,29,30.35,10.0,North,6.9,-,N/A,,Clear,360,2013-03-27 17:56:00
1:56 PM,59.0,24.1,26,30.32,10.0,NNE,6.9,-,N/A,,Clear,20,2013-03-27 18:56:00
2:56 PM,59.0,21.9,24,30.29,10.0,WNW,6.9,-,N/A,,Clear,290,2013-03-27 19:56:00
3:56 PM,61.0,23.0,23,30.27,10.0,WNW,6.9,-,N/A,,Clear,300,2013-03-27 20:56:00
4:56 PM,61.0,23.0,23,30.26,10.0,NW,9.2,-,N/A,,Clear,320,2013-03-27 21:56:00
5:56 PM,61.0,23.0,23,30.25,10.0,NNW,4.6,-,N/A,,Clear,330,2013-03-27 22:56:00
6:56 PM,55.9,24.1,29,30.27,10.0,Calm,Calm,-,N/A,,Clear,0,2013-03-27 23:56:00
7:56 PM,50.0,37.0,61,30.28,10.0,South,4.6,-,N/A,,Clear,190,2013-03-28 00:56:00
8:56 PM,46.9,36.0,66,30.27,10.0,Calm,Calm,-,N/A,,Clear,0,2013-03-28 01:56:00
9:56 PM,43.0,34.0,71,30.28,10.0,Calm,Calm,-,N/A,,Clear,0,2013-03-28 02:56:00
10:56 PM,41.0,32.0,70,30.28,10.0,Calm,Calm,-,N/A,,Clear,0,2013-03-28 03:56:00
11:56 PM,37.0,32.0,82,30.28,10.0,Calm,Calm,-,N/A,,Clear,0,2013-03-28 04:56:00